This demonstration page uses our WeatherBlox Daily Observations layout. Learn more.

Left ArrowRight Arrow

39.29038, -76.61219

Hourly Observations for December 21, 2020

Temp ( °F °C ) Dew Point ( °F °C ) Humidity (%) Winds ( mph kmh ) Pressure ( in mb ) Visibility ( mi km ) Precip ( " mm )
12:54 am 00:54 Cloudy 37 2.8 34 1.1 89 89 Calm 29.94 1014 7 11 0.00 0.00
1:54 am 01:54 Cloudy 38 3.3 35 1.7 89 89 ESE 3 6 29.92 1013 7 11 0.00 0.00
2:24 am 02:24 Cloudy 39 3.9 35 1.7 86 86 ESE 3 6 29.93 1013 8 13 0.00 0.00
2:54 am 02:54 Cloudy 38 3.3 35 1.7 89 89 Calm 29.93 1013 7 11 0.00 0.00
3:54 am 03:54 Cloudy 38 3.3 35 1.7 89 89 Calm 29.90 1013 7 11 0.00 0.00
4:33 am 04:33 Cloudy 38 3.3 35 1.7 89 89 Calm 29.91 1013 7 11 0.00 0.00
4:54 am 04:54 Cloudy 39 3.9 35 1.7 86 86 Calm 29.90 1013 7 11 0.00 0.00
5:54 am 05:54 Cloudy with Mist and Fog 38 3.3 35 1.7 89 89 Calm 29.90 1013 6 10 0.00 0.00
6:54 am 06:54 Cloudy with Mist and Fog 38 3.3 35 1.7 89 89 Calm 29.90 1013 6 10 0.00 0.00
7:54 am 07:54 Cloudy with Mist and Fog 39 3.9 35 1.7 86 86 WNW 3 6 29.91 1013 4 6 0.00 0.00
8:54 am 08:54 Cloudy with Mist and Fog 39 3.9 36 2.2 89 89 VRB 3 6 29.91 1013 3 5 0.00 0.00
9:39 am 09:39 Cloudy with Mist and Fog 40 4.4 36 2.2 86 86 WNW 3 6 29.93 1013 3 5 0.00 0.00
9:54 am 09:54 Cloudy with Mist and Fog 40 4.4 36 2.2 86 86 WSW 3 6 29.91 1013 3 5 0.00 0.00
10:29 am 10:29 Cloudy with Mist and Fog 39 3.9 36 2.2 89 89 WNW 6 9 29.92 1013 3 4 0.00 0.00
10:54 am 10:54 Cloudy with Mist and Fog 39 3.9 36 2.2 89 89 WNW 6 9 29.91 1013 3 5 0.00 0.00
11:42 am 11:42 Mostly Cloudy 42 5.6 36 2.2 79 79 W 5 7 29.88 1012 7 11 0.00 0.00
11:54 am 11:54 Mostly Cloudy 43 6.1 36 2.2 76 76 VRB 5 7 29.86 1011 8 13 0.00 0.00
12:54 pm 12:54 Mostly Cloudy 47 8.3 37 2.8 69 69 VRB 5 7 29.83 1010 10 16 0.00 0.00
1:54 pm 13:54 Mostly Cloudy 48 8.9 34 1.1 58 58 Calm 29.80 1009 10 16 0.00 0.00
2:54 pm 14:54 Mostly Cloudy 49 9.4 34 1.1 56 56 SW 3 6 29.78 1009 10 16 0.00 0.00
3:54 pm 15:54 Mostly Cloudy 49 9.4 34 1.1 56 56 WSW 3 6 29.78 1008 10 16 0.00 0.00
4:54 pm 16:54 Partly Cloudy 45 7.2 36 2.2 71 71 SE 7 11 29.77 1008 10 16 0.00 0.00
5:54 pm 17:54 Partly Cloudy 44 6.7 37 2.8 76 76 SSE 5 7 29.77 1008 10 16 0.00 0.00
6:54 pm 18:54 Partly Cloudy 42 5.6 36 2.2 79 79 SSE 5 7 29.76 1008 10 16 0.00 0.00
7:54 pm 19:54 Mostly Cloudy 40 4.4 35 1.7 83 83 Calm 29.76 1008 10 16 0.00 0.00
8:54 pm 20:54 Cloudy 42 5.6 37 2.8 82 82 SSW 3 6 29.75 1008 10 16 0.00 0.00
9:54 pm 21:54 Cloudy 42 5.6 37 2.8 82 82 S 3 6 29.73 1007 10 16 0.00 0.00
10:54 pm 22:54 Cloudy with Light Rain 42 5.6 38 3.3 85 85 Calm 29.72 1006 8 13 0.01 0.25
11:54 pm 23:54 Cloudy with Light Rain 42 5.6 39 3.9 89 89 Calm 29.72 1006 5 8 0.01 0.25

Powered by AerisWeather